Tracking 28125 objects as of 2-Oct-2023
HD Live streaming from Space Station
objects crossing your sky now

THORAD DELTA 1 DEB

Track THORAD DELTA 1 DEB now!
10-day predictions


NORAD ID: 42602
Int'l Code: 1974-089FT
Perigee: 1,382.7 km
Apogee: 1,899.2 km
Inclination: 101.4 °
Period: 119.0 minutes
Semi major axis: 8011 km
RCS: Unknown
Launch date: November 15, 1974
Source: United States (US)
Launch site: AIR FORCE WESTERN TEST RANGE (AFWTR)

Note: This is SATELLITE DEBRIS
Your satellite tracking list
Your tracking list is empty




NASA's NSSDC Master Catalog

Two Line Element Set (TLE):
1 42602U 74089FT  23274.41963690  .00000231  00000-0  24793-2 0  9991
2 42602 101.4365 325.9486 0322312  93.2372 270.5600 12.10581661850309
Source of the keplerian elements: AFSPC